Weather History for Hoquiam, WA

Change the Weather History Date:

Saturday, March 30, 2013

  Actual Average Record
Temperature  
Mean Temperature 56 °F 47 °F  
Max Temperature 71 °F 54 °F 71 °F (2013)
Min Temperature 41 °F 41 °F 28 °F (1954)
Degree Days  
Heating Degree Days 9 18  
Month to date heating degree days 577 569  
Cooling Degree Days 0 0  
Month to date cooling degree days 0 0  
Year to date cooling degree days 0 0  
Growing Degree Days 6 (Base 50)    
Moisture  
Dew Point 44 °F    
Average Humidity 69    
Maximum Humidity 100    
Minimum Humidity 38    
Precipitation  
Precipitation 0.00 in 0.21 in 1.80 in (2011)
Month to date precipitation 5.92 6.77  
Year to date precipitation 18.92 24.31  
Sea Level Pressure  
Sea Level Pressure 30.16 in    
Wind  
Wind Speed 7 mph (ENE)    
Max Wind Speed 16 mph    
Max Gust Speed 22 mph    
Visibility 10 miles    
Events      
T = Trace of Precipitation, MM = Missing Value Source: NWS Daily Summary

Daily Weather History Graph

Daily Weather History Graph

Search for Another Location

Airport:

Trip Planner

Search our weather history database for the weather conditions in past years. The results will help you decide how hot, cold, wet, or windy it might be!

Date:

Astronomy

Mar. 30, 2013 Rise Set
Actual Time 6:58 AM PDT 7:42 PM PDT
Civil Twilight 6:27 AM PDT 8:13 PM PDT
Nautical Twilight 5:50 AM PDT 8:50 PM PDT
Astronomical Twilight 5:12 AM PDT 9:28 PM PDT
Moon No Moon Rise 8:43 AM PDT (3/30)
Length of Visible Light 13h 46m
Length of Day
12h 44m
Waning Gibbous, 85% of the Moon is Illuminated
Mar 30
Waning Gibbous
Apr 2
Last Quarter
Apr 10
New
Apr 18
First Quarter
Apr 25
Full

Hourly Weather History & Observations

Time (PDT) Temp. Windchill Dew Point Humidity Pressure Visibility Wind Dir Wind Speed Gust Speed Precip Events Conditions
12:17 AM 46.4 °F 45.2 °F 44.6 °F 93% 30.24 in 10.0 mi East 3.5 mph - N/A   Scattered Clouds
12:53 AM 45.0 °F 42.6 °F 43.0 °F 93% 30.25 in 10.0 mi NE 4.6 mph - N/A   Clear
1:53 AM 45.0 °F 43.5 °F 43.0 °F 93% 30.25 in 10.0 mi NE 3.5 mph - N/A   Clear
2:53 AM 44.1 °F 41.5 °F 42.1 °F 93% 30.25 in 10.0 mi East 4.6 mph - N/A   Clear
3:53 AM 45.0 °F 42.6 °F 43.0 °F 93% 30.24 in 10.0 mi NE 4.6 mph - N/A   Clear
4:53 AM 43.0 °F 38.2 °F 41.0 °F 93% 30.23 in 10.0 mi ENE 8.1 mph - N/A   Clear
5:53 AM 43.0 °F 38.8 °F 41.0 °F 93% 30.22 in 10.0 mi NE 6.9 mph - N/A   Clear
6:53 AM 42.1 °F 36.6 °F 39.9 °F 92% 30.22 in 10.0 mi ENE 9.2 mph - N/A   Clear
7:53 AM 43.0 °F 38.2 °F 42.1 °F 97% 30.22 in 10.0 mi East 8.1 mph - N/A   Clear
8:53 AM 48.9 °F - 44.1 °F 83% 30.22 in 10.0 mi ENE 5.8 mph - N/A   Clear
9:53 AM 51.1 °F - 46.0 °F 83% 30.22 in 10.0 mi East 9.2 mph - N/A   Clear
10:53 AM 59.0 °F - 43.0 °F 55% 30.21 in 10.0 mi NE 9.2 mph 19.6 mph N/A   Clear
11:53 AM 63.0 °F - 43.0 °F 48% 30.19 in 10.0 mi ENE 12.7 mph - N/A   Clear
12:53 PM 66.0 °F - 41.0 °F 40% 30.18 in 10.0 mi NE 12.7 mph 20.7 mph N/A   Clear
1:53 PM 68.0 °F - 43.0 °F 40% 30.16 in 10.0 mi ENE 10.4 mph - N/A   Clear
2:53 PM 71.1 °F - 44.1 °F 38% 30.13 in 10.0 mi ENE 9.2 mph - N/A   Clear
3:53 PM 68.0 °F - 46.0 °F 45% 30.11 in 10.0 mi Calm Calm - N/A   Clear
4:53 PM 66.9 °F - 46.9 °F 49% 30.09 in 10.0 mi WSW 6.9 mph - N/A   Clear
5:53 PM 66.9 °F - 46.9 °F 49% 30.07 in 10.0 mi SW 3.5 mph - N/A   Clear
6:53 PM 60.1 °F - 51.1 °F 72% 30.06 in 10.0 mi Calm Calm - N/A   Clear
7:53 PM 57.0 °F - 46.9 °F 69% 30.05 in 10.0 mi Calm Calm - N/A   Clear
8:53 PM 62.1 °F - 44.1 °F 52% 30.05 in 10.0 mi NNE 9.2 mph - N/A   Clear
9:53 PM 60.1 °F - 43.0 °F 53% 30.05 in 10.0 mi NE 10.4 mph - N/A   Clear
10:53 PM 57.9 °F - 42.1 °F 56% 30.05 in 10.0 mi NE 9.2 mph - N/A   Clear
11:53 PM 55.0 °F - 42.1 °F 62% 30.04 in 10.0 mi NE 9.2 mph - N/A   Clear